,,Stat5,,Stat1,,Stat2,,Stat3,,Stat4,,Wind1,,Wind1,
time,status,PA1M_AVG,status,PR1M_SUM,status,RH1M_AVG,status,SR1M_AVG,status,TA1M_AVG,status,W1dAve1m,status,W1sAve1m,
2000-11-04, 00:00:00,VALID,919.608,VALID,0,VALID,99.1928,VALID,0,VALID,19.8421,VALID,188,VALID,0,
2000-11-04, 00:01:00,VALID,919.604,VALID,0,VALID,99.1852,VALID,-0.0169808,VALID,19.8476,VALID,184,VALID,0,
2000-11-04, 00:02:00,VALID,919.6,VALID,0,VALID,99.1788,VALID,-0.0169808,VALID,19.8391,VALID,178,VALID,0,
2000-11-04, 00:03:00,VALID,919.585,VALID,0,VALID,99.1839,VALID,-0.0679233,VALID,19.8319,VALID,180,VALID,0,
2000-11-04, 00:04:00,VALID,919.576,VALID,0,VALID,99.1801,VALID,-0.0169808,VALID,19.8217,VALID,169,VALID,0,
2000-11-04, 00:05:00,VALID,919.563,VALID,0,VALID,99.1737,VALID,-0.0509425,VALID,19.8262,VALID,174,VALID,0,
2000-11-04, 00:06:00,VALID,919.555,VALID,0,VALID,99.189,VALID,0,VALID,19.8058,VALID,165,VALID,0,
2000-11-04, 00:07:00,VALID,919.547,VALID,0,VALID,99.1674,VALID,-0.0339617,VALID,19.7969,VALID,165,VALID,0,
2000-11-04, 00:08:00,VALID,919.536,VALID,0,VALID,99.1737,VALID,0,VALID,19.7897,VALID,165,VALID,0,
2000-11-04, 00:09:00,VALID,919.528,VALID,0,VALID,99.1712,VALID,-0.0339617,VALID,19.7937,VALID,165,VALID,0,
2000-11-04, 00:10:00,VALID,919.522,VALID,0,VALID,99.1597,VALID,-0.0509425,VALID,19.774,VALID,165,VALID,0,
2000-11-04, 00:11:00,VALID,919.515,VALID,0,VALID,99.1305,VALID,0,VALID,19.7643,VALID,168,VALID,0,
2000-11-04, 00:12:00,VALID,919.513,VALID,0,VALID,99.119,VALID,0,VALID,19.731,VALID,173,VALID,0,
2000-11-04, 00:13:00,VALID,919.5,VALID,0,VALID,99.1343,VALID,-0.0169808,VALID,19.7248,VALID,173,VALID,0,
2000-11-04, 00:14:00,VALID,919.495,VALID,0,VALID,99.1381,VALID,-0.0169808,VALID,19.735,VALID,173,VALID,0,
2000-11-04, 00:15:00,VALID,919.492,VALID,0,VALID,99.1038,VALID,-0.0169808,VALID,19.7223,VALID,173,VALID,0,
2000-11-04, 00:16:00,VALID,919.482,VALID,0,VALID,99.0923,VALID,-0.0509425,VALID,19.7198,VALID,173,VALID,0,
2000-11-04, 00:17:00,VALID,919.475,VALID,0,VALID,99.1012,VALID,-0.0169808,VALID,19.696,VALID,173,VALID,0,
2000-11-04, 00:18:00,VALID,919.463,VALID,0,VALID,99.0923,VALID,0,VALID,19.6793,VALID,173,VALID,0,
2000-11-04, 00:19:00,VALID,919.446,VALID,0,VALID,99.0923,VALID,0,VALID,19.6928,VALID,176,VALID,0,
2000-11-04, 00:20:00,VALID,919.435,VALID,0,VALID,99.1063,VALID,-0.0169808,VALID,19.6895,VALID,229,VALID,0,
2000-11-04, 00:21:00,VALID,919.41,VALID,0,VALID,99.133,VALID,0.0169808,VALID,19.6925,VALID,230,VALID,0.235431,
2000-11-04, 00:22:00,VALID,919.4,VALID,0,VALID,99.1228,VALID,0,VALID,19.6923,VALID,223,VALID,0.991728,
2000-11-04, 00:23:00,VALID,919.382,VALID,0,VALID,99.1101,VALID,0,VALID,19.6895,VALID,224,VALID,1.09016,
2000-11-04, 00:24:00,VALID,919.352,VALID,0,VALID,99.0961,VALID,0.0339617,VALID,19.6699,VALID,220,VALID,0.976974,
2000-11-04, 00:25:00,VALID,919.338,VALID,0,VALID,99.1012,VALID,0.0169808,VALID,19.6674,VALID,212,VALID,0.787623,
2000-11-04, 00:26:00,VALID,919.319,VALID,0,VALID,99.1063,VALID,0.0169808,VALID,19.6411,VALID,208,VALID,1.26049,
2000-11-04, 00:27:00,VALID,919.294,VALID,0,VALID,99.1241,VALID,0.0169808,VALID,19.6319,VALID,201,VALID,0.698902,
2000-11-04, 00:28:00,VALID,919.274,VALID,0,VALID,99.1343,VALID,0,VALID,19.6182,VALID,211,VALID,0.894761,
2000-11-04, 00:29:00,VALID,919.263,VALID,0,VALID,99.1381,VALID,0,VALID,19.6117,VALID,209,VALID,0.639992,
2000-11-04, 00:30:00,VALID,919.254,VALID,0,VALID,99.1648,VALID,0.0169808,VALID,19.6152,VALID,182,VALID,0.674561,
2000-11-04, 00:31:00,VALID,919.244,VALID,0,VALID,99.1648,VALID,0.0339617,VALID,19.6155,VALID,183,VALID,0.447716,
2000-11-04, 00:32:00,VALID,919.239,VALID,0,VALID,99.175,VALID,0,VALID,19.6085,VALID,174,VALID,0.242411,
2000-11-04, 00:33:00,VALID,919.232,VALID,0,VALID,99.1534,VALID,0,VALID,19.5924,VALID,165,VALID,0.6269,
2000-11-04, 00:34:00,VALID,919.223,VALID,0,VALID,99.1559,VALID,0.0169808,VALID,19.5861,VALID,148,VALID,0.588235,
2000-11-04, 00:35:00,VALID,919.222,VALID,0,VALID,99.1559,VALID,0,VALID,19.5737,VALID,128,VALID,0.809966,
2000-11-04, 00:36:00,VALID,919.22,VALID,0,VALID,99.1254,VALID,0,VALID,19.5439,VALID,117,VALID,0.92866,
2000-11-04, 00:37:00,VALID,919.221,VALID,0,VALID,99.0847,VALID,0,VALID,19.5181,VALID,117,VALID,0.965049,
2000-11-04, 00:38:00,VALID,919.201,VALID,0,VALID,99.03,VALID,0.0169808,VALID,19.4761,VALID,111,VALID,0.735491,
2000-11-04, 00:39:00,VALID,919.198,VALID,0,VALID,99.0059,VALID,0.0169808,VALID,19.4604,VALID,119,VALID,0.678209,
2000-11-04, 00:40:00,VALID,919.187,VALID,0,VALID,98.9525,VALID,-0.0169808,VALID,19.4216,VALID,123,VALID,0.797105,
2000-11-04, 00:41:00,VALID,919.186,VALID,0,VALID,98.9321,VALID,0,VALID,19.4082,VALID,117,VALID,0.592272,
2000-11-04, 00:42:00,VALID,919.168,VALID,0,VALID,98.9156,VALID,0,VALID,19.4022,VALID,132,VALID,0.613037,
2000-11-04, 00:43:00,VALID,919.174,VALID,0,VALID,98.8787,VALID,0,VALID,19.3893,VALID,129,VALID,0.562099,
2000-11-04, 00:44:00,VALID,919.165,VALID,0,VALID,98.8762,VALID,0,VALID,19.3988,VALID,138,VALID,0.166295,
2000-11-04, 00:45:00,VALID,919.169,VALID,0,VALID,98.8266,VALID,0,VALID,19.3926,VALID,147,VALID,0,
2000-11-04, 00:46:00,VALID,919.154,VALID,0,VALID,98.7986,VALID,0.0339617,VALID,19.3732,VALID,157,VALID,0,
2000-11-04, 00:47:00,VALID,919.141,VALID,0,VALID,98.8164,VALID,0,VALID,19.3928,VALID,157,VALID,0,
2000-11-04, 00:48:00,VALID,919.12,VALID,0,VALID,98.7821,VALID,0,VALID,19.396,VALID,160,VALID,0,
2000-11-04, 00:49:00,VALID,919.099,VALID,0,VALID,98.7503,VALID,0.0169808,VALID,19.3796,VALID,170,VALID,0,
2000-11-04, 00:50:00,VALID,919.091,VALID,0,VALID,98.7261,VALID,0.0339617,VALID,19.3695,VALID,173,VALID,0,
2000-11-04, 00:51:00,VALID,919.072,VALID,0,VALID,98.6816,VALID,0.0169808,VALID,19.3404,VALID,176,VALID,0,
2000-11-04, 00:52:00,VALID,919.052,VALID,0,VALID,98.6524,VALID,0.0169808,VALID,19.3573,VALID,179,VALID,0,
2000-11-04, 00:53:00,VALID,919.04,VALID,0,VALID,98.6244,VALID,0,VALID,19.3376,VALID,195,VALID,0,
2000-11-04, 00:54:00,VALID,919.03,VALID,0,VALID,98.6269,VALID,0.0169808,VALID,19.3409,VALID,194,VALID,0,
2000-11-04, 00:55:00,VALID,919.016,VALID,0,VALID,98.5862,VALID,0,VALID,19.3178,VALID,188,VALID,0,
2000-11-04, 00:56:00,VALID,918.995,VALID,0,VALID,98.5532,VALID,0,VALID,19.3183,VALID,184,VALID,0,
2000-11-04, 00:57:00,VALID,918.971,VALID,0,VALID,98.571,VALID,0,VALID,19.315,VALID,171,VALID,0,
2000-11-04, 00:58:00,VALID,918.955,VALID,0,VALID,98.5519,VALID,0,VALID,19.3284,VALID,171,VALID,0,
2000-11-04, 00:59:00,VALID,918.935,VALID,0,VALID,98.5481,VALID,0.0339617,VALID,19.3247,VALID,177,VALID,0,
2000-11-04, 01:00:00,VALID,918.933,VALID,0,VALID,98.5862,VALID,0.0169808,VALID,19.3247,VALID,179,VALID,0,
2000-11-04, 01:01:00,VALID,918.926,VALID,0,VALID,98.59,VALID,0.0339617,VALID,19.318,VALID,186,VALID,0,
2000-11-04, 01:02:00,VALID,918.913,VALID,0,VALID,98.5761,VALID,-0.0339617,VALID,19.3227,VALID,187,VALID,0,
2000-11-04, 01:03:00,VALID,918.919,VALID,0,VALID,98.5354,VALID,-0.0849042,VALID,19.3063,VALID,183,VALID,0,
2000-11-04, 01:04:00,VALID,918.916,VALID,0,VALID,98.5328,VALID,-0.101885,VALID,19.3098,VALID,189,VALID,0,
2000-11-04, 01:05:00,VALID,918.916,VALID,0,VALID,98.5506,VALID,-0.101885,VALID,19.3299,VALID,189,VALID,0.544975,
2000-11-04, 01:06:00,VALID,918.92,VALID,0,VALID,98.5659,VALID,-0.0679233,VALID,19.3428,VALID,219,VALID,0.243164,
2000-11-04, 01:07:00,VALID,918.915,VALID,0,VALID,98.5799,VALID,-0.101885,VALID,19.3326,VALID,216,VALID,0,
2000-11-04, 01:08:00,VALID,918.923,VALID,0,VALID,98.5722,VALID,-0.101885,VALID,19.3493,VALID,199,VALID,0,
2000-11-04, 01:09:00,VALID,918.927,VALID,0,VALID,98.5303,VALID,-0.101885,VALID,19.3396,VALID,209,VALID,0,
2000-11-04, 01:10:00,VALID,918.92,VALID,0,VALID,98.4146,VALID,-0.101885,VALID,19.317,VALID,213,VALID,0.0186121,
2000-11-04, 01:11:00,VALID,918.93,VALID,0,VALID,98.3205,VALID,-0.101885,VALID,19.2971,VALID,223,VALID,0.073902,
2000-11-04, 01:12:00,VALID,918.938,VALID,0,VALID,98.2493,VALID,-0.101885,VALID,19.2847,VALID,216,VALID,0.767887,
2000-11-04, 01:13:00,VALID,918.926,VALID,0,VALID,98.1602,VALID,-0.0679233,VALID,19.2678,VALID,204,VALID,0.651933,
2000-11-04, 01:14:00,VALID,918.917,VALID,0,VALID,98.0178,VALID,-0.101885,VALID,19.2581,VALID,190,VALID,0.440848,
2000-11-04, 01:15:00,VALID,918.903,VALID,0,VALID,97.7966,VALID,-0.0849042,VALID,19.2424,VALID,186,VALID,0.708826,
2000-11-04, 01:16:00,VALID,918.899,VALID,0,VALID,97.644,VALID,-0.101885,VALID,19.2226,VALID,203,VALID,0.552849,
2000-11-04, 01:17:00,VALID,918.879,VALID,0,VALID,97.5473,VALID,-0.0679233,VALID,19.2362,VALID,201,VALID,0.486486,
2000-11-04, 01:18:00,VALID,918.871,VALID,0,VALID,97.2574,VALID,-0.101885,VALID,19.2129,VALID,194,VALID,0.743408,
2000-11-04, 01:19:00,VALID,918.859,VALID,0,VALID,96.6254,VALID,-0.0849042,VALID,19.1838,VALID,189,VALID,0.484776,
2000-11-04, 01:20:00,VALID,918.84,VALID,0,VALID,96.4868,VALID,-0.0849042,VALID,19.1942,VALID,183,VALID,0.52433,
2000-11-04, 01:21:00,VALID,918.832,VALID,0,VALID,96.1664,VALID,-0.118866,VALID,19.1781,VALID,209,VALID,0.556377,
2000-11-04, 01:22:00,VALID,918.808,VALID,0,VALID,96.0659,VALID,-0.118866,VALID,19.1877,VALID,215,VALID,0.346278,
2000-11-04, 01:23:00,VALID,918.784,VALID,0,VALID,95.8548,VALID,-0.118866,VALID,19.1979,VALID,206,VALID,0.571579,
2000-11-04, 01:24:00,VALID,918.77,VALID,0,VALID,95.6743,VALID,-0.101885,VALID,19.1781,VALID,180,VALID,0.799548,
2000-11-04, 01:25:00,VALID,918.752,VALID,0,VALID,95.7226,VALID,-0.101885,VALID,19.1716,VALID,183,VALID,0.754934,
2000-11-04, 01:26:00,VALID,918.739,VALID,0,VALID,95.7226,VALID,-0.118866,VALID,19.149,VALID,173,VALID,0.949107,
2000-11-04, 01:27:00,VALID,918.734,VALID,0,VALID,95.9019,VALID,-0.101885,VALID,19.1358,VALID,177,VALID,0.789063,
2000-11-04, 01:28:00,VALID,918.733,VALID,0,VALID,96.0545,VALID,-0.101885,VALID,19.1167,VALID,175,VALID,0.686121,
2000-11-04, 01:29:00,VALID,918.724,VALID,0,VALID,96.2477,VALID,-0.101885,VALID,19.1139,VALID,196,VALID,0.90625,
2000-11-04, 01:30:00,VALID,918.72,VALID,0,VALID,96.5084,VALID,-0.0849042,VALID,19.1139,VALID,197,VALID,0.746338,
2000-11-04, 01:31:00,VALID,918.723,VALID,0,VALID,96.6763,VALID,-0.101885,VALID,19.1035,VALID,194,VALID,0.865785,
2000-11-04, 01:32:00,VALID,918.708,VALID,0,VALID,96.8912,VALID,-0.0509425,VALID,19.1063,VALID,197,VALID,0.73125,
2000-11-04, 01:33:00,VALID,918.699,VALID,0,VALID,97.0717,VALID,0.0169808,VALID,19.1155,VALID,204,VALID,0.368032,
2000-11-04, 01:34:00,VALID,918.695,VALID,0,VALID,97.2218,VALID,-0.0169808,VALID,19.1055,VALID,203,VALID,0.538373,
2000-11-04, 01:35:00,VALID,918.682,VALID,0,VALID,97.396,VALID,0,VALID,19.0921,VALID,201,VALID,0.789274,
2000-11-04, 01:36:00,VALID,918.68,VALID,0,VALID,97.6007,VALID,0,VALID,19.1021,VALID,204,VALID,0.588816,
2000-11-04, 01:37:00,VALID,918.668,VALID,0,VALID,97.8551,VALID,0.0169808,VALID,19.1145,VALID,219,VALID,0.652344,
2000-11-04, 01:38:00,VALID,918.668,VALID,0,VALID,97.9453,VALID,0.0169808,VALID,19.1249,VALID,190,VALID,0.460491,
2000-11-04, 01:39:00,VALID,918.63,VALID,0,VALID,98.0522,VALID,0,VALID,19.1217,VALID,164,VALID,0.561233,
2000-11-04, 01:40:00,VALID,918.613,VALID,0,VALID,98.1272,VALID,0,VALID,19.1252,VALID,158,VALID,0.19761,
2000-11-04, 01:41:00,VALID,918.608,VALID,0,VALID,98.159,VALID,0.0169808,VALID,19.109,VALID,149,VALID,0.414485,
2000-11-04, 01:42:00,VALID,918.579,VALID,0,VALID,98.1297,VALID,0,VALID,19.0931,VALID,157,VALID,0.525879,
2000-11-04, 01:43:00,VALID,918.56,VALID,0,VALID,98.1895,VALID,-0.0169808,VALID,19.0901,VALID,159,VALID,0.594752,
2000-11-04, 01:44:00,VALID,918.542,VALID,0,VALID,98.22,VALID,0,VALID,19.0869,VALID,153,VALID,0.151116,
2000-11-04, 01:45:00,VALID,918.523,VALID,0,VALID,98.3077,VALID,0,VALID,19.0799,VALID,160,VALID,0.680743,
2000-11-04, 01:46:00,VALID,918.505,VALID,0,VALID,98.3688,VALID,0.0169808,VALID,19.0891,VALID,156,VALID,0.728401,
2000-11-04, 01:47:00,VALID,918.486,VALID,0,VALID,98.3891,VALID,0,VALID,19.0735,VALID,160,VALID,0.668285,
2000-11-04, 01:48:00,VALID,918.468,VALID,0,VALID,98.4146,VALID,0,VALID,19.0603,VALID,163,VALID,0.533717,
2000-11-04, 01:49:00,VALID,918.45,VALID,0,VALID,98.4692,VALID,0,VALID,19.0608,VALID,155,VALID,0.688117,
2000-11-04, 01:50:00,VALID,918.433,VALID,0,VALID,98.5544,VALID,-0.0169808,VALID,19.0541,VALID,150,VALID,0.662054,
2000-11-04, 01:51:00,VALID,918.417,VALID,0,VALID,98.6167,VALID,0,VALID,19.0643,VALID,129,VALID,0.374789,
2000-11-04, 01:52:00,VALID,918.406,VALID,0,VALID,98.6511,VALID,0,VALID,19.0677,VALID,137,VALID,0.454963,
2000-11-04, 01:53:00,VALID,918.386,VALID,0,VALID,98.6854,VALID,0.0169808,VALID,19.0546,VALID,142,VALID,0.4356,
2000-11-04, 01:54:00,VALID,918.376,VALID,0,VALID,98.6702,VALID,0,VALID,19.0349,VALID,143,VALID,0.0307617,
2000-11-04, 01:55:00,VALID,918.358,VALID,0,VALID,98.6905,VALID,0.0169808,VALID,19.0223,VALID,155,VALID,0,
2000-11-04, 01:56:00,VALID,918.328,VALID,0,VALID,98.6816,VALID,0.0169808,VALID,19.0121,VALID,164,VALID,0,
2000-11-04, 01:57:00,VALID,918.319,VALID,0,VALID,98.7134,VALID,0,VALID,18.9959,VALID,164,VALID,0,
2000-11-04, 01:58:00,VALID,918.296,VALID,0,VALID,98.7337,VALID,0,VALID,18.986,VALID,164,VALID,0,
2000-11-04, 01:59:00,VALID,918.277,VALID,0,VALID,98.7477,VALID,0,VALID,18.9999,VALID,164,VALID,0,
2000-11-04, 02:00:00,VALID,918.255,VALID,0,VALID,98.7515,VALID,0,VALID,18.987,VALID,164,VALID,0,
2000-11-04, 02:01:00,VALID,918.254,VALID,0,VALID,98.7719,VALID,0.0169808,VALID,18.9733,VALID,164,VALID,0,
2000-11-04, 02:02:00,VALID,918.24,VALID,0,VALID,98.7732,VALID,0,VALID,18.98,VALID,164,VALID,0,
2000-11-04, 02:03:00,VALID,918.24,VALID,0,VALID,98.7782,VALID,0,VALID,18.9773,VALID,164,VALID,0,
2000-11-04, 02:04:00,VALID,918.232,VALID,0,VALID,98.7795,VALID,-0.0339617,VALID,18.9636,VALID,210,VALID,0,
2000-11-04, 02:05:00,VALID,918.189,VALID,0,VALID,98.7948,VALID,0,VALID,18.9572,VALID,213,VALID,0,
2000-11-04, 02:06:00,VALID,918.189,VALID,0,VALID,98.8049,VALID,0.0169808,VALID,18.9639,VALID,210,VALID,0,
2000-11-04, 02:07:00,VALID,918.187,VALID,0,VALID,98.8088,VALID,0,VALID,18.9639,VALID,199,VALID,0,
2000-11-04, 02:08:00,VALID,918.184,VALID,0,VALID,98.8278,VALID,0,VALID,18.9805,VALID,173,VALID,0,
2000-11-04, 02:09:00,VALID,918.181,VALID,0,VALID,98.8075,VALID,-0.0169808,VALID,18.9738,VALID,170,VALID,0,
2000-11-04, 02:10:00,VALID,918.192,VALID,0,VALID,98.7833,VALID,0,VALID,18.9703,VALID,172,VALID,0,
2000-11-04, 02:11:00,VALID,918.204,VALID,0,VALID,98.7643,VALID,0,VALID,18.9678,VALID,179,VALID,0,
2000-11-04, 02:12:00,VALID,918.199,VALID,0,VALID,98.7655,VALID,0.0169808,VALID,18.9609,VALID,197,VALID,0,
2000-11-04, 02:13:00,VALID,918.191,VALID,0,VALID,98.7795,VALID,0,VALID,18.9609,VALID,225,VALID,0,
2000-11-04, 02:14:00,VALID,918.199,VALID,0,VALID,98.7617,VALID,0,VALID,18.9579,VALID,217,VALID,0.497991,
2000-11-04, 02:15:00,VALID,918.193,VALID,0,VALID,98.7401,VALID,0,VALID,18.9122,VALID,211,VALID,0.8731,
2000-11-04, 02:16:00,VALID,918.194,VALID,0,VALID,98.7668,VALID,0,VALID,18.8896,VALID,218,VALID,0.717601,
2000-11-04, 02:17:00,VALID,918.186,VALID,0,VALID,98.777,VALID,0,VALID,18.8704,VALID,203,VALID,1.06377,
2000-11-04, 02:18:00,VALID,918.175,VALID,0,VALID,98.8164,VALID,-0.0169808,VALID,18.8675,VALID,204,VALID,0.798584,
2000-11-04, 02:19:00,VALID,918.16,VALID,0,VALID,98.8711,VALID,0,VALID,18.8411,VALID,195,VALID,0.841947,
2000-11-04, 02:20:00,VALID,918.141,VALID,0,VALID,98.9029,VALID,-0.0339617,VALID,18.8481,VALID,191,VALID,0.70692,
2000-11-04, 02:21:00,VALID,918.127,VALID,0,VALID,98.9334,VALID,-0.0169808,VALID,18.8384,VALID,177,VALID,0.682855,
2000-11-04, 02:22:00,VALID,918.114,VALID,0,VALID,98.9563,VALID,0,VALID,18.8252,VALID,172,VALID,0.632123,
2000-11-04, 02:23:00,VALID,918.105,VALID,0,VALID,98.9728,VALID,0,VALID,18.8093,VALID,185,VALID,0.910051,
2000-11-04, 02:24:00,VALID,918.084,VALID,0,VALID,98.9842,VALID,-0.0169808,VALID,18.7862,VALID,170,VALID,0.650905,
2000-11-04, 02:25:00,VALID,918.065,VALID,0,VALID,98.9842,VALID,-0.0169808,VALID,18.7966,VALID,161,VALID,0.758224,
2000-11-04, 02:26:00,VALID,918.055,VALID,0,VALID,99.0033,VALID,0.0169808,VALID,18.774,VALID,148,VALID,0.588839,
2000-11-04, 02:27:00,VALID,918.046,VALID,0,VALID,98.9499,VALID,0,VALID,18.7643,VALID,143,VALID,0.789274,
2000-11-04, 02:28:00,VALID,918.033,VALID,0,VALID,98.8851,VALID,0,VALID,18.7124,VALID,148,VALID,0.688189,
2000-11-04, 02:29:00,VALID,918.02,VALID,0,VALID,98.8673,VALID,0,VALID,18.7027,VALID,144,VALID,0.580448,
2000-11-04, 02:30:00,VALID,918.015,VALID,0,VALID,98.8164,VALID,0,VALID,18.6801,VALID,157,VALID,0.674316,
2000-11-04, 02:31:00,VALID,918.001,VALID,0,VALID,98.7007,VALID,-0.0169808,VALID,18.6381,VALID,165,VALID,0.541066,
2000-11-04, 02:32:00,VALID,918.004,VALID,0,VALID,98.5672,VALID,-0.0339617,VALID,18.5991,VALID,170,VALID,0.852009,
2000-11-04, 02:33:00,VALID,917.992,VALID,0,VALID,98.5303,VALID,-0.0169808,VALID,18.5934,VALID,169,VALID,0.591639,
2000-11-04, 02:34:00,VALID,917.986,VALID,0,VALID,98.4972,VALID,-0.0169808,VALID,18.5763,VALID,164,VALID,0.595588,
2000-11-04, 02:35:00,VALID,917.978,VALID,0,VALID,98.3472,VALID,0,VALID,18.5804,VALID,164,VALID,0.915329,
2000-11-04, 02:36:00,VALID,917.977,VALID,0,VALID,98.0534,VALID,-0.0169808,VALID,18.5444,VALID,167,VALID,1.01049,
2000-11-04, 02:37:00,VALID,917.96,VALID,0.2,VALID,97.7597,VALID,0,VALID,18.5447,VALID,167,VALID,0.902138,
2000-11-04, 02:38:00,VALID,917.952,VALID,0,VALID,97.3744,VALID,0,VALID,18.5414,VALID,170,VALID,0.917188,
2000-11-04, 02:39:00,VALID,917.945,VALID,0,VALID,97.3388,VALID,-0.0169808,VALID,18.5576,VALID,185,VALID,1.11529,
2000-11-04, 02:40:00,VALID,917.941,VALID,0,VALID,97.438,VALID,-0.0169808,VALID,18.5636,VALID,190,VALID,0.768842,
2000-11-04, 02:41:00,VALID,917.936,VALID,0,VALID,97.6732,VALID,0.0169808,VALID,18.5864,VALID,201,VALID,0.668708,
2000-11-04, 02:42:00,VALID,917.936,VALID,0,VALID,97.8779,VALID,-0.0169808,VALID,18.6088,VALID,216,VALID,0.906494,
2000-11-04, 02:43:00,VALID,917.935,VALID,0,VALID,98.0445,VALID,0.0169808,VALID,18.6289,VALID,207,VALID,0.808694,
2000-11-04, 02:44:00,VALID,917.934,VALID,0,VALID,98.1958,VALID,-0.0169808,VALID,18.6312,VALID,210,VALID,0.795759,
2000-11-04, 02:45:00,VALID,917.933,VALID,0,VALID,98.3205,VALID,0,VALID,18.6448,VALID,207,VALID,1.11043,
2000-11-04, 02:46:00,VALID,917.914,VALID,0,VALID,98.4082,VALID,0,VALID,18.6478,VALID,209,VALID,0.128906,
2000-11-04, 02:47:00,VALID,917.899,VALID,0,VALID,98.487,VALID,-0.0339617,VALID,18.6545,VALID,197,VALID,0.776816,
2000-11-04, 02:48:00,VALID,917.879,VALID,0,VALID,98.5455,VALID,0,VALID,18.6573,VALID,211,VALID,0.60773,
2000-11-04, 02:49:00,VALID,917.878,VALID,0,VALID,98.6028,VALID,-0.0169808,VALID,18.6773,VALID,207,VALID,0.670641,
2000-11-04, 02:50:00,VALID,917.864,VALID,0,VALID,98.6536,VALID,0,VALID,18.6743,VALID,210,VALID,0.590625,
2000-11-04, 02:51:00,VALID,917.841,VALID,0,VALID,98.7007,VALID,-0.0169808,VALID,18.6771,VALID,206,VALID,0.887458,
2000-11-04, 02:52:00,VALID,917.832,VALID,0,VALID,98.7325,VALID,0,VALID,18.6838,VALID,201,VALID,0.680607,
2000-11-04, 02:53:00,VALID,917.809,VALID,0,VALID,98.777,VALID,-0.0169808,VALID,18.6838,VALID,199,VALID,0.769003,
2000-11-04, 02:54:00,VALID,917.804,VALID,0,VALID,98.7757,VALID,0,VALID,18.6967,VALID,200,VALID,0.70166,
2000-11-04, 02:55:00,VALID,917.793,VALID,0,VALID,98.8011,VALID,0,VALID,18.6935,VALID,197,VALID,0.173678,
2000-11-04, 02:56:00,VALID,917.79,VALID,0,VALID,98.7948,VALID,-0.0169808,VALID,18.7101,VALID,216,VALID,0.886161,
2000-11-04, 02:57:00,VALID,917.794,VALID,0,VALID,98.7592,VALID,-0.0509425,VALID,18.7002,VALID,220,VALID,0.82538,
2000-11-04, 02:58:00,VALID,917.776,VALID,0,VALID,98.7083,VALID,0,VALID,18.6766,VALID,218,VALID,0.879136,
2000-11-04, 02:59:00,VALID,917.779,VALID,0,VALID,98.6676,VALID,0,VALID,18.6573,VALID,211,VALID,0.943201,
2000-11-04, 03:00:00,VALID,917.764,VALID,0,VALID,98.6282,VALID,0,VALID,18.6699,VALID,212,VALID,0.572574,
2000-11-04, 03:01:00,VALID,917.76,VALID,0,VALID,98.5773,VALID,0,VALID,18.6771,VALID,207,VALID,0.559416,
2000-11-04, 03:02:00,VALID,917.747,VALID,0,VALID,98.4667,VALID,0.0509425,VALID,18.6759,VALID,190,VALID,0.383929,
2000-11-04, 03:03:00,VALID,917.748,VALID,0,VALID,98.2671,VALID,0.101885,VALID,18.6499,VALID,191,VALID,0.602829,
2000-11-04, 03:04:00,VALID,917.745,VALID,0,VALID,97.9364,VALID,0.0509425,VALID,18.6305,VALID,181,VALID,0.574219,
2000-11-04, 03:05:00,VALID,917.74,VALID,0,VALID,97.3337,VALID,0.101885,VALID,18.6111,VALID,185,VALID,0.868243,
2000-11-04, 03:06:00,VALID,917.727,VALID,0,VALID,96.7386,VALID,0.0849042,VALID,18.6111,VALID,183,VALID,0.79126,
2000-11-04, 03:07:00,VALID,917.719,VALID,0,VALID,96.0468,VALID,0.101885,VALID,18.6307,VALID,177,VALID,0.672476,
2000-11-04, 03:08:00,VALID,917.714,VALID,0,VALID,96.174,VALID,0.0849042,VALID,18.6632,VALID,170,VALID,0.422545,
2000-11-04, 03:09:00,VALID,917.704,VALID,0,VALID,96.2681,VALID,0.101885,VALID,18.6725,VALID,162,VALID,0.472973,
2000-11-04, 03:10:00,VALID,917.689,VALID,0,VALID,96.2338,VALID,0.101885,VALID,18.6692,VALID,171,VALID,0.241728,
2000-11-04, 03:11:00,VALID,917.683,VALID,0,VALID,96.3876,VALID,0.0849042,VALID,18.663,VALID,174,VALID,0.272593,
2000-11-04, 03:12:00,VALID,917.669,VALID,0,VALID,96.2299,VALID,0.101885,VALID,18.6533,VALID,175,VALID,0.523232,
2000-11-04, 03:13:00,VALID,917.669,VALID,0,VALID,96.1676,VALID,0.0849042,VALID,18.6471,VALID,168,VALID,0.523232,
2000-11-04, 03:14:00,VALID,917.665,VALID,0,VALID,96.4436,VALID,0.0849042,VALID,18.6402,VALID,159,VALID,0.506027,
2000-11-04, 03:15:00,VALID,917.659,VALID,0,VALID,96.6686,VALID,0.0849042,VALID,18.6533,VALID,158,VALID,0.445735,
2000-11-04, 03:16:00,VALID,917.657,VALID,0,VALID,96.675,VALID,0.0679233,VALID,18.6339,VALID,158,VALID,0.458869,
2000-11-04, 03:17:00,VALID,917.658,VALID,0,VALID,96.6458,VALID,0.0509425,VALID,18.6185,VALID,158,VALID,0.437078,
2000-11-04, 03:18:00,VALID,917.659,VALID,0,VALID,96.4143,VALID,0,VALID,18.5837,VALID,167,VALID,0.415527,
2000-11-04, 03:19:00,VALID,917.67,VALID,0,VALID,96.2109,VALID,-0.0169808,VALID,18.5611,VALID,183,VALID,0.540064,
2000-11-04, 03:20:00,VALID,917.65,VALID,0,VALID,95.8001,VALID,-0.0169808,VALID,18.5481,VALID,196,VALID,0.650893,
2000-11-04, 03:21:00,VALID,917.66,VALID,0,VALID,95.7531,VALID,0,VALID,18.541,VALID,199,VALID,0.642948,
2000-11-04, 03:22:00,VALID,917.655,VALID,0,VALID,95.4695,VALID,-0.0169808,VALID,18.5511,VALID,212,VALID,0.808134,
2000-11-04, 03:23:00,VALID,917.651,VALID,0,VALID,94.8414,VALID,-0.0339617,VALID,18.5581,VALID,210,VALID,1.17842,
2000-11-04, 03:24:00,VALID,917.635,VALID,0,VALID,94.6888,VALID,-0.0169808,VALID,18.5906,VALID,210,VALID,0.846423,
2000-11-04, 03:25:00,VALID,917.651,VALID,0,VALID,94.5285,VALID,0,VALID,18.616,VALID,200,VALID,0.828536,
2000-11-04, 03:26:00,VALID,917.647,VALID,0,VALID,94.746,VALID,-0.0509425,VALID,18.6455,VALID,194,VALID,0.669866,
2000-11-04, 03:27:00,VALID,917.649,VALID,0,VALID,95.0245,VALID,-0.0509425,VALID,18.646,VALID,200,VALID,0.552365,
2000-11-04, 03:28:00,VALID,917.641,VALID,0,VALID,95.0575,VALID,-0.0509425,VALID,18.6324,VALID,207,VALID,0.534007,
2000-11-04, 03:29:00,VALID,917.652,VALID,0,VALID,94.9876,VALID,-0.0339617,VALID,18.6227,VALID,205,VALID,0.61212,
2000-11-04, 03:30:00,VALID,917.644,VALID,0,VALID,94.8744,VALID,-0.0169808,VALID,18.6224,VALID,199,VALID,0.905762,
2000-11-04, 03:31:00,VALID,917.663,VALID,0,VALID,94.9037,VALID,0,VALID,18.6289,VALID,198,VALID,0.828926,
2000-11-04, 03:32:00,VALID,917.663,VALID,0,VALID,94.7244,VALID,-0.0339617,VALID,18.6224,VALID,207,VALID,0.758929,
2000-11-04, 03:33:00,VALID,917.665,VALID,0,VALID,94.6964,VALID,-0.0679233,VALID,18.6455,VALID,187,VALID,0.817568,
2000-11-04, 03:34:00,VALID,917.653,VALID,0,VALID,94.8922,VALID,-0.0509425,VALID,18.6388,VALID,171,VALID,0.829733,
2000-11-04, 03:35:00,VALID,917.657,VALID,0,VALID,94.8325,VALID,-0.0169808,VALID,18.6291,VALID,171,VALID,0.893159,
2000-11-04, 03:36:00,VALID,917.655,VALID,0,VALID,95.0461,VALID,-0.0169808,VALID,18.619,VALID,168,VALID,0.891859,
2000-11-04, 03:37:00,VALID,917.656,VALID,0,VALID,94.6875,VALID,0,VALID,18.5839,VALID,180,VALID,0.892475,
2000-11-04, 03:38:00,VALID,917.646,VALID,0,VALID,94.821,VALID,0,VALID,18.57,VALID,196,VALID,0.521652,